Retour au catalogue

STARLINK-32683

ActifCommunicationsVLEO
NORAD 62445·PAYLOAD·🇺🇸 United States

Lancé Dec 29, 2024 depuis Vandenberg Space Force Base

Loading…

Prochains Passages (prochaines 24 heures)

TLE

FraisSource: CelesTrak SupGP

Époque: Sep 15, 2026, 03:25 UTC

1 62445C 24251P   26258.14284722  .00045838  00000+0  13542-2 0  2580
2 62445  53.1576 172.4913 0001483  79.3268 306.4023 15.34368127    17

Suivez STARLINK-32683 en temps réel avec AllMySat

Download on the App Store